User: anonymous   Login
Location: Unspecified
(0.0000°N, 0.0000°E)
Time: 16:39:37
(UTC+00:00)
Language:

DSP F14 - Orbit

View from above orbital plane
View from above orbital plane
View from above satellite
View from above satellite

Ground track
Ground track

The orbit data is extracted from the following two-line orbital elements,

1 20066U 89046A   17084.44836709 0.00000000  00000-0  00000-0 0    05
2 20066  14.7130   8.4205 0003095 234.7298 125.2533  0.98814081    03
Epoch (UTC): 25 March 2017 10:45:38
Eccentricity: 0.0003095
inclination: 14.7130°
perigee height: 36187 km
apogee height: 36213 km
right ascension of ascending node: 8.4205°
argument of perigee: 234.7298°
revolutions per day: 0.98814081
mean anomaly at epoch: 125.2533°
orbit number at epoch: 0

The dashed part of the orbit path shows where the satellite is in the earth's shadow,  

DLR